Portada
METAR-TAF:

METAR-TAF

Aeroports :

Grinnell, Iowa, Estats Units d'Amèrica

latitud: 41-42-35N, longitud: 092-44-09W, altitud: 307 m

Observació

L'informe es va fer fa 25 minuts, a les 09:55 UTC
Vent calma
Temperatura 5°C
Humitat 81%
Pressió 1017 hPa
Visibilitat: 16.1 km
Cel clar

METAR: KGGI 220955Z AUTO 00000KT 10SM CLR 05/02 A3004 RMK AO2 T00490020

Hora: 05:20 (10:20 UTC)


TAF: manca

Observacions i pronòstics meteorològics de més de 4000 aeroports (METAR i TAF).

Les estacions disponibles són els punts grocs i vermells al mapa.

Posi el ratolí al punt desitjat per veure el nom de l'estació.

Feu clic per veure les observacions i els pronòstics meteorològics.

Per canviar el mapa: feu clic els botons verds amb una creu de color negre per apropar; al botó verd amb un guió per allunyar la imatge; o en les fletxes verdes per a mapes adjacents.


METAR-TAF: